SUPERBIRD-B2

Last updated on Fri Aug 17 2018 00:20:38 GMT+0000 (Coordinated Universal Time)

1 26095U 00012A 18228.52115229 -.00000290 00000-0 00000+0 0 9994 2 26095 1.3115 91.1225 0015098 75.8287 132.4188 0.98852963 67724

Satellite not in orbit

SUPERBIRD-B2